COSMOS 2251 DEB, 34114

Orbit data source: Space-Track

COSMOS 2251 DEB, 34114 is space debris in LEO originally from a launch on Wed, 16 Jun 1993 UTC launched from the Plesetsk Missile And Space Complex (PKMTR). The debris from Iridium 33, an American commercial communications satellite, has been tracked extensively since its accidental collision with the defunct Russian satellite Cosmos 2251 in 2009. This event, occurring at high speed in low Earth orbit (LEO), generated thousands of pieces of space debris, significantly increasing the risk of further collisions. The Iridium 33 debris cloud has impacted space traffic management and orbital debris mitigation strategies, making it a subject of ongoing study in space situational awareness.

Loading next visibility...
Identifier
34114, 1993-036KK
Orbit
LEO
Country
Flag of CISCIS
Related business
Manufacturer
Unknown
Mission
Spacecraft
Bus & Motor
Unknown
Mass
Unknown
Launch date (UTC)
1993-06-16 (33 years ago)
Launch vehicle
Unknown
Launch site
Plesetsk Missile And Space Complex (PKMTR)
Object type
Payload
Rocket body
Debris
Shape & HBR
Unknown shape, 0.1 m
Radar Cross Section
Small (<0.1 m²)

Expand to show TLE details & history
Last TLE update: 7 hours ago

TLE from 7 hours ago
0 COSMOS 2251 DEB
1 34114U 93036KK  26062.51745844  .00011401  00000-0  24390-2 0  9995
2 34114  74.0556 250.5552 0045371 227.7133 163.1772 14.58184921889781
Epoch: 2026-03-03T12:25Z
TLE epoch observation values (Epoch: 2026-03-03T12:25:08.409Z)
Latitude
29.77981°
Longitude
-87.66672°
Altitude
733.22 km
Speed
7.475 km/s
True Right ascension
17h 19m 39s
True Declination
29° 37' 53"
Sunlit
Object was in daylight at epoch
Visualization orbit readout
Latitude
Unknown
Longitude
Unknown
Altitude
Unknown
Speed
Unknown
Apparent Right ascension
Unknown
Apparent Declination
Unknown
Sunlit
N/A
Visualization observer readout
Local Sidereal Time
23:01:15
Azimuth
Unknown
Elevation
Unknown
Doppler factor
Unknown
Orbital elements
Apogee altitude
728.738 km
Perigee altitude
664.54 km
Semi-major axis
7,074.776 km
Eccentricity
0.00454
Inclination
74.0556°
RAAN
250.5552°
Arg. of periapsis
227.7133°
True anomaly
163.32686°
Mean anomaly
163.1772°
Eccentric anomaly
163.25211°
Mean motion
3.64732 °/min
Orbital period
98.7 mins
BSTAR
0.002439
Loading maneuver chart data...
Computing Atmospheric mass density...

Documentation

Showing up to 5 results
|